| time (UTC) | temp C | wind direction | speed KPH | gust KPH | rain 1hr cm | rain 24hr cm | rain mn cm | humidity % | barometer mb |
| 20260503004431 | 13 | 97 | 0.0 | 4.8 | 0.00 | 0.00 | 0.00 | 71 | 635.3 |
| 20260503003424 | 13 | 97 | 0.0 | 4.8 | 0.00 | 0.00 | 0.00 | 70 | 412.2 |
| 20260503002423 | 13 | 97 | 0.0 | 0.0 | 0.00 | 0.00 | 0.00 | 69 | 440.2 |
| 20260503001425 | 13 | 97 | 0.0 | 4.8 | 0.00 | 0.00 | 0.00 | 68 | 465.7 |
| 20260503000425 | 13 | 97 | 0.0 | 0.0 | 0.00 | 0.00 | 0.00 | 68 | 498.6 |
| 20260502235421 | 13 | 97 | 0.0 | 0.0 | 0.00 | 0.00 | 0.00 | 68 | 471.4 |
| 20260502234420 | 13 | 97 | 0.0 | 0.0 | 0.00 | 0.00 | 0.00 | 68 | 441.9 |
| 20260502233922 | 13 | 97 | 0.0 | 0.0 | 0.00 | 0.00 | 0.00 | 68 | 462.5 |
| 20260502232424 | 13 | 97 | 1.6 | 6.4 | 0.00 | 0.00 | 0.00 | 68 | 787.8 |
| 20260502231902 | 13 | 98 | 0.0 | 3.2 | 0.00 | 0.00 | 0.00 | 68 | 466.6 |
| 20260502230424 | 13 | 98 | 0.0 | 6.4 | 0.00 | 0.00 | 0.00 | 68 | 508.3 |
| 20260502225412 | 13 | 98 | 1.6 | 4.8 | 0.00 | 0.00 | 0.00 | 68 | 469.6 |
| 20260502224406 | 13 | 98 | 0.0 | 0.0 | 0.00 | 0.00 | 0.00 | 67 | 461.0 |
| 20260502223405 | 13 | 98 | 1.6 | 6.4 | 0.00 | 0.00 | 0.00 | 67 | 795.9 |
| 20260502222856 | 13 | 98 | 0.0 | 6.4 | 0.00 | 0.00 | 0.00 | 67 | 561.9 |
| 20260502221404 | 14 | 98 | 1.6 | 4.8 | 0.00 | 0.00 | 0.00 | 66 | 766.8 |
| 20260502220404 | 14 | 98 | 0.0 | 4.8 | 0.00 | 0.00 | 0.00 | 66 | 467.7 |
| 20260502215403 | 14 | 98 | 1.6 | 6.4 | 0.00 | 0.00 | 0.00 | 65 | 467.9 |
| 20260502214403 | 14 | 98 | 0.0 | 4.8 | 0.00 | 0.00 | 0.00 | 65 | 468.3 |
| 20260502213405 | 15 | 98 | 0.0 | 0.0 | 0.00 | 0.00 | 0.00 | 65 | 467.1 |
| 20260502212359 | 15 | 98 | 0.0 | 0.0 | 0.00 | 0.00 | 0.00 | 65 | 465.4 |
| 20260502211359 | 15 | 98 | 0.0 | 1.6 | 0.00 | 0.00 | 0.00 | 65 | 907.3 |
| 20260502210400 | 15 | 98 | 0.0 | 0.0 | 0.00 | 0.00 | 0.00 | 64 | 444.7 |
| 20260502205359 | 15 | 98 | 0.0 | 0.0 | 0.00 | 0.00 | 0.00 | 64 | 582.7 |
| 20260502204359 | 15 | 98 | 0.0 | 0.0 | 0.00 | 0.00 | 0.00 | 64 | 826.3 |
| 20260502203400 | 16 | 98 | 0.0 | 3.2 | 0.00 | 0.00 | 0.00 | 64 | 601.5 |
| 20260502202851 | 16 | 98 | 0.0 | 3.2 | 0.00 | 0.00 | 0.00 | 63 | 478.0 |
| 20260502201400 | 16 | 98 | 0.0 | 3.2 | 0.00 | 0.00 | 0.00 | 63 | 530.1 |
| 20260502200359 | 16 | 98 | 1.6 | 4.8 | 0.00 | 0.00 | 0.00 | 62 | 468.4 |
| 20260502195359 | 16 | 99 | 3.2 | 6.4 | 0.00 | 0.00 | 0.00 | 61 | 445.3 |
| 20260502194359 | 16 | 103 | 3.2 | 6.4 | 0.00 | 0.00 | 0.00 | 58 | 524.9 |
| 20260502193400 | 17 | 93 | 1.6 | 6.4 | 0.00 | 0.00 | 0.00 | 56 | 505.3 |
| 20260502192359 | 17 | 93 | 1.6 | 6.4 | 0.00 | 0.00 | 0.00 | 55 | 457.1 |
| 20260502191400 | 17 | 0 | 3.2 | 6.4 | 0.00 | 0.00 | 0.00 | 55 | 460.4 |
| 20260502190359 | 18 | 131 | 0.0 | 0.0 | 0.00 | 0.00 | 0.00 | 54 | 515.0 |
| 20260502185359 | 18 | 180 | 0.0 | 0.0 | 0.00 | 0.00 | 0.00 | 53 | 638.4 |
| 20260502184847 | 18 | 202 | 0.0 | 4.8 | 0.00 | 0.00 | 0.00 | 52 | 414.5 |
| 20260502183359 | 18 | 196 | 3.2 | 11.3 | 0.00 | 0.00 | 0.00 | 51 | 466.7 |
| 20260502182359 | 19 | 185 | 1.6 | 8.0 | 0.00 | 0.00 | 0.00 | 50 | 456.7 |
| 20260502181358 | 20 | 184 | 1.6 | 8.0 | 0.00 | 0.00 | 0.00 | 48 | 414.7 |
| 20260502180359 | 20 | 199 | 1.6 | 8.0 | 0.00 | 0.00 | 0.00 | 46 | 483.3 |
| 20260502170359 | 23 | 221 | 6.4 | 14.5 | 0.00 | 0.00 | 0.00 | 38 | 432.9 |
| 20260502163851 | 23 | 252 | 6.4 | 14.5 | 0.00 | 0.00 | 0.00 | 37 | 747.4 |
| 20260502162359 | 23 | 233 | 9.7 | 17.7 | 0.00 | 0.00 | 0.00 | 37 | 1125.3 |
| 20260502161359 | 23 | 259 | 6.4 | 16.1 | 0.00 | 0.00 | 0.00 | 37 | 580.5 |
| 20260502160359 | 23 | 185 | 6.4 | 17.7 | 0.00 | 0.00 | 0.00 | 35 | 468.0 |
| 20260502151400 | 24 | 268 | 6.4 | 17.7 | 0.00 | 0.00 | 0.00 | 34 | 599.8 |
| 20260502150359 | 24 | 245 | 4.8 | 12.9 | 0.00 | 0.00 | 0.00 | 33 | 433.4 |
| 20260502130400 | 23 | 225 | 4.8 | 19.3 | 0.00 | 0.00 | 0.00 | 34 | 486.4 |
| 20260502123400 | 23 | 258 | 11.3 | 19.3 | 0.00 | 0.00 | 0.00 | 34 | 461.9 |
| 20260502122401 | 23 | 267 | 6.4 | 16.1 | 0.00 | 0.00 | 0.00 | 35 | 470.2 |
| 20260502121400 | 22 | 231 | 8.0 | 19.3 | 0.00 | 0.00 | 0.00 | 34 | 439.6 |
| 20260502120836 | 22 | 279 | 9.7 | 24.1 | 0.00 | 0.00 | 0.00 | 36 | 488.2 |
| 20260502115400 | 22 | 252 | 8.0 | 17.7 | 0.00 | 0.00 | 0.00 | 34 | 1110.6 |
| 20260502114400 | 22 | 221 | 9.7 | 24.1 | 0.00 | 0.00 | 0.00 | 34 | 504.9 |
| 20260502113848 | 22 | 294 | 8.0 | 19.3 | 0.00 | 0.00 | 0.00 | 34 | 476.6 |
| 20260502112401 | 22 | 213 | 4.8 | 14.5 | 0.00 | 0.00 | 0.00 | 34 | 418.9 |
| 20260502111400 | 22 | 200 | 8.0 | 19.3 | 0.00 | 0.00 | 0.00 | 36 | 467.9 |
| 20260502110400 | 22 | 247 | 8.0 | 22.5 | 0.00 | 0.00 | 0.00 | 35 | 467.8 |
| 20260502105837 | 22 | 190 | 8.0 | 19.3 | 0.00 | 0.00 | 0.00 | 35 | 655.9 |
| 20260502104401 | 22 | 243 | 4.8 | 19.3 | 0.00 | 0.00 | 0.00 | 35 | 463.9 |
| 20260502103842 | 21 | 263 | 4.8 | 14.5 | 0.00 | 0.00 | 0.00 | 36 | 835.6 |
| 20260502102401 | 21 | 299 | 3.2 | 11.3 | 0.00 | 0.00 | 0.00 | 37 | 677.7 |
| 20260502101358 | 21 | 275 | 8.0 | 14.5 | 0.00 | 0.00 | 0.00 | 36 | 484.3 |
| 20260502100353 | 21 | 250 | 3.2 | 16.1 | 0.00 | 0.00 | 0.00 | 37 | 1276.8 |
| 20260502100327 | 21 | 286 | 4.8 | 16.1 | 0.00 | 0.00 | 0.00 | 39 | 582.1 |
| 20260502091341 | 20 | 212 | 3.2 | 11.3 | 0.00 | 0.00 | 0.00 | 38 | 511.8 |
| 20260502090337 | 20 | 169 | 1.6 | 8.0 | 0.00 | 0.00 | 0.00 | 39 | 575.4 |
| 20260502071327 | 16 | 40 | 0.0 | 4.8 | 0.00 | 0.00 | 0.00 | 50 | 600.3 |
| 20260502070327 | 16 | 42 | 0.0 | 0.0 | 0.00 | 0.00 | 0.00 | 51 | 462.9 |
| 20260502065329 | 16 | 42 | 0.0 | 0.0 | 0.00 | 0.00 | 0.00 | 51 | 476.4 |
| 20260502064327 | 16 | 42 | 0.0 | 0.0 | 0.00 | 0.00 | 0.00 | 52 | 675.6 |
| 20260502063327 | 15 | 42 | 0.0 | 3.2 | 0.00 | 0.00 | 0.00 | 54 | 496.9 |
| 20260502062329 | 15 | 42 | 1.6 | 6.4 | 0.00 | 0.00 | 0.00 | 55 | 583.9 |
| 20260502061324 | 14 | 42 | 1.6 | 6.4 | 0.00 | 0.00 | 0.00 | 56 | 476.0 |
| 20260502060815 | 14 | 42 | 1.6 | 8.0 | 0.00 | 0.00 | 0.00 | 57 | 530.1 |
| 20260502055320 | 13 | 42 | 0.0 | 6.4 | 0.00 | 0.00 | 0.00 | 56 | 482.5 |
| 20260502054322 | 13 | 42 | 0.0 | 0.0 | 0.00 | 0.00 | 0.00 | 59 | 508.9 |
| 20260502053806 | 13 | 42 | 0.0 | 0.0 | 0.00 | 0.00 | 0.00 | 60 | 482.2 |
| 20260502052315 | 12 | 42 | 0.0 | 4.8 | 0.00 | 0.00 | 0.00 | 61 | 904.7 |
| 20260502051314 | 12 | 42 | 0.0 | 4.8 | 0.00 | 0.00 | 0.00 | 62 | 470.7 |
| 20260502050308 | 11 | 42 | 1.6 | 6.4 | 0.00 | 0.00 | 0.00 | 63 | 468.3 |
| 20260502045306 | 11 | 42 | 0.0 | 0.0 | 0.00 | 0.00 | 0.00 | 64 | 462.3 |
| 20260502044305 | 11 | 42 | 0.0 | 0.0 | 0.00 | 0.00 | 0.00 | 64 | 469.3 |
| 20260502043759 | 10 | 42 | 1.6 | 6.4 | 0.00 | 0.00 | 0.00 | 65 | 463.8 |
| 20260502042305 | 10 | 42 | 1.6 | 6.4 | 0.00 | 0.00 | 0.00 | 66 | 775.3 |
| 20260502041304 | 10 | 42 | 1.6 | 6.4 | 0.00 | 0.00 | 0.00 | 67 | 502.3 |
| 20260502040303 | 10 | 42 | 0.0 | 3.2 | 0.00 | 0.00 | 0.00 | 66 | 450.4 |
| 20260502035306 | 10 | 42 | 0.0 | 3.2 | 0.00 | 0.00 | 0.00 | 66 | 459.0 |
| 20260502034304 | 10 | 42 | 1.6 | 8.0 | 0.00 | 0.00 | 0.00 | 65 | 531.3 |
| 20260502033303 | 10 | 43 | 3.2 | 6.4 | 0.00 | 0.00 | 0.00 | 65 | 1169.2 |
| 20260502032305 | 10 | 44 | 3.2 | 8.0 | 0.00 | 0.00 | 0.00 | 65 | 424.3 |
| 20260502031711 | 10 | 59 | 1.6 | 6.4 | 0.00 | 0.00 | 0.00 | 65 | 462.9 |
| 20260502031448 | 10 | 52 | 3.2 | 8.0 | 0.00 | 0.00 | 0.00 | 65 | 534.1 |
| 20260502025302 | 10 | 60 | 0.0 | 6.4 | 0.00 | 0.00 | 0.00 | 65 | 491.4 |
| 20260502024746 | 10 | 60 | 0.0 | 0.0 | 0.00 | 0.00 | 0.00 | 65 | 769.4 |
| 20260502023305 | 10 | 60 | 0.0 | 4.8 | 0.00 | 0.00 | 0.00 | 64 | 681.2 |
| 20260502022743 | 10 | 60 | 1.6 | 6.4 | 0.00 | 0.00 | 0.00 | 65 | 832.4 |
| 20260502021304 | 10 | 60 | 0.0 | 0.0 | 0.00 | 0.00 | 0.00 | 65 | 601.6 |
| 20260502020756 | 10 | 60 | 0.0 | 0.0 | 0.00 | 0.00 | 0.00 | 65 | 798.9 |
| 20260502015305 | 10 | 60 | 0.0 | 0.0 | 0.00 | 0.00 | 0.00 | 64 | 778.7 |
| 20260502014259 | 10 | 60 | 0.0 | 4.8 | 0.00 | 0.00 | 0.00 | 64 | 595.3 |
| 20260502013257 | 10 | 60 | 0.0 | 4.8 | 0.00 | 0.00 | 0.00 | 64 | 630.0 |
| 20260502012740 | 10 | 60 | 0.0 | 3.2 | 0.00 | 0.00 | 0.00 | 64 | 966.9 |
| 20260502011252 | 10 | 60 | 0.0 | 0.0 | 0.00 | 0.00 | 0.00 | 64 | 476.6 |
| 20260502010251 | 11 | 60 | 1.6 | 4.8 | 0.00 | 0.00 | 0.00 | 63 | 468.8 |
| 20260502005249 | 11 | 60 | 0.0 | 6.4 | 0.00 | 0.00 | 0.00 | 63 | 408.7 |